"Date","Average Accumulated Water Year PPT (in)","Average SWE (in)"
10/01/1981,0.030,0.000
10/02/1981,0.032,0.000
10/03/1981,0.032,0.000
10/04/1981,0.232,0.000
10/05/1981,0.245,0.000
10/06/1981,0.397,0.000
10/07/1981,0.397,0.000
10/08/1981,0.397,0.000
10/09/1981,0.397,0.000
10/10/1981,0.397,0.000
10/11/1981,0.397,0.000
10/12/1981,0.397,0.000
10/13/1981,0.397,0.000
10/14/1981,0.646,0.000
10/15/1981,1.044,0.000
10/16/1981,1.045,0.000
10/17/1981,1.045,0.000
10/18/1981,2.019,0.000
10/19/1981,2.101,0.000
10/20/1981,2.101,0.000
10/21/1981,2.101,0.000
10/22/1981,2.187,0.000
10/23/1981,2.187,0.000
10/24/1981,2.187,0.000
10/25/1981,2.189,0.002
10/26/1981,2.211,0.000
10/27/1981,2.211,0.000
10/28/1981,2.211,0.000
10/29/1981,2.211,0.000
10/30/1981,2.211,0.000
10/31/1981,2.214,0.000
11/01/1981,2.217,0.000
11/02/1981,2.223,0.000
11/03/1981,2.280,0.000
11/04/1981,2.280,0.000
11/05/1981,2.462,0.000
11/06/1981,2.511,0.000
11/07/1981,2.511,0.000
11/08/1981,2.511,0.000
11/09/1981,2.511,0.000
11/10/1981,2.511,0.000
11/11/1981,2.511,0.000
11/12/1981,2.511,0.000
11/13/1981,2.511,0.000
11/14/1981,2.511,0.000
11/15/1981,2.511,0.000
11/16/1981,2.545,0.000
11/17/1981,2.545,0.000
11/18/1981,2.545,0.000
11/19/1981,2.548,0.000
11/20/1981,2.945,0.143
11/21/1981,2.952,0.145
11/22/1981,2.952,0.145
11/23/1981,2.952,0.145
11/24/1981,3.386,0.463
11/25/1981,3.386,0.416
11/26/1981,3.389,0.298
11/27/1981,3.684,0.173
11/28/1981,3.684,0.173
11/29/1981,3.684,0.173
11/30/1981,3.684,0.173
12/01/1981,4.036,0.234
12/02/1981,4.080,0.204
12/03/1981,4.080,0.204
12/04/1981,4.206,0.338
12/05/1981,4.206,0.338
12/06/1981,4.213,0.342
12/07/1981,4.213,0.274
12/08/1981,4.213,0.203
12/09/1981,4.213,0.203
12/10/1981,4.213,0.203
12/11/1981,4.213,0.203
12/12/1981,4.213,0.203
12/13/1981,4.213,0.203
12/14/1981,4.213,0.200
12/15/1981,4.213,0.200
12/16/1981,4.213,0.200
12/17/1981,4.217,0.204
12/18/1981,4.217,0.204
12/19/1981,4.217,0.204
12/20/1981,4.217,0.204
12/21/1981,4.369,0.444
12/22/1981,4.369,0.444
12/23/1981,4.369,0.444
12/24/1981,4.369,0.444
12/25/1981,4.369,0.444
12/26/1981,4.373,0.447
12/27/1981,4.373,0.447
12/28/1981,4.427,0.483
12/29/1981,4.427,0.483
12/30/1981,4.428,0.487
12/31/1981,4.436,0.492
01/01/1982,4.643,0.670
01/02/1982,4.657,0.680
01/03/1982,4.876,0.811
01/04/1982,5.463,1.414
01/05/1982,5.465,1.415
01/06/1982,5.509,1.440
01/07/1982,5.525,1.460
01/08/1982,5.525,1.460
01/09/1982,5.563,1.488
01/10/1982,5.563,1.488
01/11/1982,5.585,1.533
01/12/1982,5.585,1.533
01/13/1982,5.722,1.731
01/14/1982,5.726,1.734
01/15/1982,5.726,1.734
01/16/1982,5.776,1.794
01/17/1982,5.776,1.794
01/18/1982,5.874,2.009
01/19/1982,5.874,2.009
01/20/1982,5.874,2.009
01/21/1982,5.979,2.217
01/22/1982,5.979,2.217
01/23/1982,6.050,2.284
01/24/1982,6.051,2.284
01/25/1982,6.146,2.494
01/26/1982,6.147,2.494
01/27/1982,6.147,2.494
01/28/1982,6.147,2.494
01/29/1982,6.147,2.494
01/30/1982,6.271,2.650
01/31/1982,6.271,2.651
02/01/1982,6.328,2.726
02/02/1982,6.328,2.726
02/03/1982,6.328,2.726
02/04/1982,6.328,2.726
02/05/1982,6.372,2.774
02/06/1982,6.486,2.867
02/07/1982,6.486,2.867
02/08/1982,6.486,2.867
02/09/1982,6.486,2.867
02/10/1982,6.486,2.867
02/11/1982,6.486,2.867
02/12/1982,6.486,2.867
02/13/1982,6.486,2.867
02/14/1982,6.486,2.867
02/15/1982,6.486,2.867
02/16/1982,6.486,2.621
02/17/1982,6.487,2.617
02/18/1982,6.494,2.596
02/19/1982,6.495,2.597
02/20/1982,6.495,2.344
02/21/1982,6.495,1.914
02/22/1982,6.495,1.773
02/23/1982,6.495,1.544
02/24/1982,6.517,1.551
02/25/1982,6.531,1.572
02/26/1982,6.531,1.572
02/27/1982,6.531,1.572
02/28/1982,6.531,1.572
03/01/1982,6.531,1.554
03/02/1982,6.726,1.627
03/03/1982,6.800,1.744
03/04/1982,7.085,2.190
03/05/1982,7.188,2.256
03/06/1982,7.188,2.256
03/07/1982,7.188,2.256
03/08/1982,7.188,2.256
03/09/1982,7.311,2.328
03/10/1982,7.392,2.424
03/11/1982,7.416,2.319
03/12/1982,7.426,2.048
03/13/1982,7.801,1.746
03/14/1982,7.801,1.669
03/15/1982,7.801,1.443
03/16/1982,8.270,1.361
03/17/1982,8.270,1.158
03/18/1982,8.270,1.090
03/19/1982,8.290,0.990
03/20/1982,9.034,1.088
03/21/1982,9.038,1.019
03/22/1982,9.038,0.996
03/23/1982,9.038,0.935
03/24/1982,9.104,0.674
03/25/1982,9.104,0.486
03/26/1982,9.104,0.482
03/27/1982,9.104,0.482
03/28/1982,9.104,0.482
03/29/1982,9.104,0.468
03/30/1982,9.195,0.247
03/31/1982,9.700,0.036
04/01/1982,9.705,0.006
04/02/1982,10.054,0.000
04/03/1982,11.542,0.000
04/04/1982,11.550,0.012
04/05/1982,11.550,0.012
04/06/1982,11.978,0.479
04/07/1982,11.978,0.479
04/08/1982,11.978,0.479
04/09/1982,12.089,0.541
04/10/1982,12.089,0.532
04/11/1982,12.089,0.355
04/12/1982,12.089,0.236
04/13/1982,12.089,0.000
04/14/1982,12.089,0.000
04/15/1982,12.089,0.000
04/16/1982,12.465,0.000
04/17/1982,12.993,0.000
04/18/1982,12.993,0.000
04/19/1982,12.993,0.000
04/20/1982,13.037,0.000
04/21/1982,13.037,0.000
04/22/1982,13.037,0.000
04/23/1982,13.037,0.000
04/24/1982,13.037,0.000
04/25/1982,13.037,0.000
04/26/1982,13.069,0.000
04/27/1982,13.104,0.000
04/28/1982,13.104,0.000
04/29/1982,13.104,0.000
04/30/1982,13.104,0.000
05/01/1982,13.104,0.000
05/02/1982,13.104,0.000
05/03/1982,13.104,0.000
05/04/1982,13.104,0.000
05/05/1982,13.149,0.000
05/06/1982,13.341,0.000
05/07/1982,13.390,0.000
05/08/1982,13.390,0.000
05/09/1982,13.390,0.000
05/10/1982,13.390,0.000
05/11/1982,13.390,0.000
05/12/1982,14.099,0.000
05/13/1982,14.099,0.000
05/14/1982,14.099,0.000
05/15/1982,14.099,0.000
05/16/1982,14.664,0.000
05/17/1982,14.669,0.000
05/18/1982,14.724,0.000
05/19/1982,14.794,0.000
05/20/1982,14.937,0.000
05/21/1982,14.986,0.000
05/22/1982,15.325,0.000
05/23/1982,15.372,0.000
05/24/1982,15.373,0.000
05/25/1982,15.373,0.000
05/26/1982,15.375,0.000
05/27/1982,16.136,0.000
05/28/1982,16.706,0.000
05/29/1982,16.717,0.000
05/30/1982,17.073,0.000
05/31/1982,17.073,0.000
06/01/1982,17.191,0.000
06/02/1982,17.191,0.000
06/03/1982,17.194,0.000
06/04/1982,17.194,0.000
06/05/1982,17.194,0.000
06/06/1982,17.194,0.000
06/07/1982,17.200,0.000
06/08/1982,17.204,0.000
06/09/1982,17.204,0.000
06/10/1982,17.204,0.000
06/11/1982,17.204,0.000
06/12/1982,17.251,0.000
06/13/1982,17.305,0.000
06/14/1982,17.305,0.000
06/15/1982,18.380,0.000
06/16/1982,18.487,0.000
06/17/1982,18.487,0.000
06/18/1982,18.580,0.000
06/19/1982,18.806,0.000
06/20/1982,18.813,0.000
06/21/1982,18.832,0.000
06/22/1982,18.908,0.000
06/23/1982,18.908,0.000
06/24/1982,18.908,0.000
06/25/1982,18.908,0.000
06/26/1982,19.443,0.000
06/27/1982,19.443,0.000
06/28/1982,19.546,0.000
06/29/1982,19.618,0.000
06/30/1982,19.962,0.000
07/01/1982,19.962,0.000
07/02/1982,19.962,0.000
07/03/1982,20.734,0.000
07/04/1982,20.739,0.000
07/05/1982,20.739,0.000
07/06/1982,20.739,0.000
07/07/1982,22.407,0.000
07/08/1982,22.407,0.000
07/09/1982,22.407,0.000
07/10/1982,22.407,0.000
07/11/1982,22.949,0.000
07/12/1982,22.949,0.000
07/13/1982,23.004,0.000
07/14/1982,23.004,0.000
07/15/1982,23.119,0.000
07/16/1982,23.119,0.000
07/17/1982,23.284,0.000
07/18/1982,23.328,0.000
07/19/1982,23.465,0.000
07/20/1982,23.465,0.000
07/21/1982,23.465,0.000
07/22/1982,26.899,0.000
07/23/1982,27.386,0.000
07/24/1982,27.386,0.000
07/25/1982,27.386,0.000
07/26/1982,27.386,0.000
07/27/1982,27.386,0.000
07/28/1982,27.768,0.000
07/29/1982,27.768,0.000
07/30/1982,27.775,0.000
07/31/1982,27.775,0.000
08/01/1982,27.775,0.000
08/02/1982,27.817,0.000
08/03/1982,27.817,0.000
08/04/1982,28.603,0.000
08/05/1982,28.744,0.000
08/06/1982,29.046,0.000
08/07/1982,29.049,0.000
08/08/1982,29.569,0.000
08/09/1982,29.569,0.000
08/10/1982,29.569,0.000
08/11/1982,29.569,0.000
08/12/1982,29.569,0.000
08/13/1982,29.569,0.000
08/14/1982,29.569,0.000
08/15/1982,29.569,0.000
08/16/1982,29.569,0.000
08/17/1982,29.569,0.000
08/18/1982,29.569,0.000
08/19/1982,29.569,0.000
08/20/1982,29.569,0.000
08/21/1982,29.569,0.000
08/22/1982,29.587,0.000
08/23/1982,29.588,0.000
08/24/1982,29.599,0.000
08/25/1982,29.924,0.000
08/26/1982,29.924,0.000
08/27/1982,29.924,0.000
08/28/1982,29.929,0.000
08/29/1982,29.960,0.000
08/30/1982,30.093,0.000
08/31/1982,30.101,0.000
09/01/1982,30.245,0.000
09/02/1982,30.273,0.000
09/03/1982,30.273,0.000
09/04/1982,30.273,0.000
09/05/1982,30.273,0.000
09/06/1982,30.281,0.000
09/07/1982,30.495,0.000
09/08/1982,30.495,0.000
09/09/1982,30.495,0.000
09/10/1982,30.495,0.000
09/11/1982,30.515,0.000
09/12/1982,30.515,0.000
09/13/1982,30.515,0.000
09/14/1982,30.591,0.000
09/15/1982,30.713,0.000
09/16/1982,30.713,0.000
09/17/1982,31.012,0.000
09/18/1982,31.436,0.000
09/19/1982,31.436,0.000
09/20/1982,31.521,0.000
09/21/1982,31.521,0.000
09/22/1982,31.521,0.000
09/23/1982,31.521,0.000
09/24/1982,31.550,0.000
09/25/1982,31.552,0.000
09/26/1982,31.552,0.000
09/27/1982,31.552,0.000
09/28/1982,31.552,0.000
09/29/1982,31.552,0.000
09/30/1982,31.552,0.000
10/01/1982,0.000,0.000
10/02/1982,0.000,0.000
10/03/1982,0.000,0.000
10/04/1982,0.000,0.000
10/05/1982,0.000,0.000
10/06/1982,0.000,0.000
10/07/1982,0.107,0.000
10/08/1982,0.107,0.000
10/09/1982,1.443,0.000
10/10/1982,1.708,0.000
10/11/1982,1.708,0.000
10/12/1982,1.708,0.000
10/13/1982,1.708,0.000
10/14/1982,1.708,0.000
10/15/1982,1.713,0.000
10/16/1982,1.714,0.000
10/17/1982,1.735,0.000
10/18/1982,1.760,0.000
10/19/1982,1.884,0.000
10/20/1982,3.352,0.000
10/21/1982,3.352,0.000
10/22/1982,3.352,0.000
10/23/1982,3.352,0.000
10/24/1982,3.352,0.000
10/25/1982,3.352,0.000
10/26/1982,3.352,0.000
10/27/1982,3.352,0.000
10/28/1982,3.363,0.000
10/29/1982,3.456,0.000
10/30/1982,3.456,0.000
10/31/1982,3.506,0.000
11/01/1982,4.146,0.000
11/02/1982,4.891,0.000
11/03/1982,4.895,0.000
11/04/1982,4.895,0.000
11/05/1982,4.895,0.000
11/06/1982,4.895,0.000
11/07/1982,4.895,0.000
11/08/1982,4.895,0.000
11/09/1982,5.190,0.000
11/10/1982,5.646,0.000
11/11/1982,5.729,0.000
11/12/1982,6.910,0.000
11/13/1982,6.910,0.000
11/14/1982,6.910,0.000
11/15/1982,6.910,0.000
11/16/1982,6.910,0.000
11/17/1982,6.910,0.000
11/18/1982,6.910,0.000
11/19/1982,6.933,0.000
11/20/1982,7.221,0.000
11/21/1982,7.237,0.000
11/22/1982,7.237,0.000
11/23/1982,7.461,0.000
11/24/1982,7.462,0.001
11/25/1982,7.462,0.001
11/26/1982,7.464,0.003
11/27/1982,7.464,0.003
11/28/1982,7.949,0.212
11/29/1982,8.059,0.193
11/30/1982,8.068,0.163
12/01/1982,8.073,0.030
12/02/1982,8.624,0.000
12/03/1982,10.822,0.000
12/04/1982,10.851,0.000
12/05/1982,11.204,0.000
12/06/1982,11.448,0.000
12/07/1982,11.448,0.000
12/08/1982,11.493,0.030
12/09/1982,11.501,0.039
12/10/1982,11.501,0.039
12/11/1982,11.501,0.039
12/12/1982,11.501,0.039
12/13/1982,11.501,0.039
12/14/1982,11.501,0.039
12/15/1982,11.507,0.021
12/16/1982,11.678,0.223
12/17/1982,11.678,0.223
12/18/1982,11.678,0.223
12/19/1982,11.681,0.122
12/20/1982,11.681,0.122
12/21/1982,11.681,0.122
12/22/1982,11.681,0.122
12/23/1982,11.799,0.024
12/24/1982,11.964,0.000
12/25/1982,12.438,0.000
12/26/1982,12.439,0.000
12/27/1982,12.439,0.000
12/28/1982,12.695,0.000
12/29/1982,12.695,0.000
12/30/1982,12.695,0.000
12/31/1982,12.695,0.000
01/01/1983,12.695,0.000
01/02/1983,12.695,0.000
01/03/1983,12.695,0.000
01/04/1983,12.695,0.000
01/05/1983,12.695,0.000
01/06/1983,12.695,0.000
01/07/1983,12.695,0.000
01/08/1983,12.695,0.000
01/09/1983,12.695,0.000
01/10/1983,12.708,0.004
01/11/1983,12.719,0.006
01/12/1983,12.757,0.044
01/13/1983,12.757,0.045
01/14/1983,12.757,0.045
01/15/1983,12.758,0.045
01/16/1983,12.758,0.045
01/17/1983,12.758,0.045
01/18/1983,12.758,0.045
01/19/1983,12.758,0.045
01/20/1983,12.758,0.045
01/21/1983,12.758,0.045
01/22/1983,12.835,0.102
01/23/1983,12.894,0.099
01/24/1983,12.894,0.094
01/25/1983,12.894,0.094
01/26/1983,12.895,0.094
01/27/1983,12.895,0.094
01/28/1983,12.895,0.094
01/29/1983,12.895,0.094
01/30/1983,13.067,0.277
01/31/1983,13.067,0.277
02/01/1983,13.067,0.277
02/02/1983,13.298,0.377
02/03/1983,14.006,1.142
02/04/1983,14.021,1.151
02/05/1983,14.021,1.151
02/06/1983,14.141,1.261
02/07/1983,14.184,1.292
02/08/1983,14.184,1.292
02/09/1983,14.184,1.292
02/10/1983,14.184,1.292
02/11/1983,14.184,1.292
02/12/1983,14.184,1.292
02/13/1983,14.184,1.292
02/14/1983,14.184,1.292
02/15/1983,14.184,0.986
02/16/1983,14.425,0.837
02/17/1983,14.476,0.809
02/18/1983,14.476,0.797
02/19/1983,14.509,0.783
02/20/1983,14.509,0.536
02/21/1983,14.509,0.275
02/22/1983,14.516,0.109
02/23/1983,14.519,0.056
02/24/1983,14.519,0.038
02/25/1983,14.519,0.038
02/26/1983,14.519,0.038
02/27/1983,14.519,0.038
02/28/1983,14.519,0.029
03/01/1983,14.519,0.012
03/02/1983,14.519,0.002
03/03/1983,14.519,0.000
03/04/1983,14.519,0.000
03/05/1983,14.519,0.000
03/06/1983,14.643,0.000
03/07/1983,15.115,0.000
03/08/1983,15.187,0.000
03/09/1983,15.191,0.003
03/10/1983,15.260,0.066
03/11/1983,15.260,0.066
03/12/1983,15.260,0.066
03/13/1983,15.260,0.029
03/14/1983,15.260,0.000
03/15/1983,15.260,0.000
03/16/1983,15.260,0.000
03/17/1983,15.260,0.000
03/18/1983,15.327,0.000
03/19/1983,16.499,0.248
03/20/1983,16.511,0.256
03/21/1983,16.849,0.686
03/22/1983,16.854,0.688
03/23/1983,16.854,0.688
03/24/1983,16.854,0.688
03/25/1983,16.854,0.688
03/26/1983,16.854,0.689
03/27/1983,17.186,0.477
03/28/1983,17.319,0.442
03/29/1983,17.319,0.442
03/30/1983,17.319,0.418
03/31/1983,17.335,0.310
04/01/1983,17.400,0.167
04/02/1983,18.902,0.025
04/03/1983,19.516,0.011
04/04/1983,19.521,0.003
04/05/1983,19.539,0.000
04/06/1983,19.710,0.000
04/07/1983,19.710,0.000
04/08/1983,19.710,0.000
04/09/1983,20.473,0.000
04/10/1983,20.568,0.000
04/11/1983,20.573,0.000
04/12/1983,20.573,0.000
04/13/1983,20.760,0.000
04/14/1983,21.133,0.000
04/15/1983,21.140,0.000
04/16/1983,21.143,0.000
04/17/1983,21.199,0.003
04/18/1983,21.199,0.003
04/19/1983,21.199,0.003
04/20/1983,21.199,0.000
04/21/1983,21.199,0.000
04/22/1983,21.199,0.000
04/23/1983,21.200,0.000
04/24/1983,21.201,0.000
04/25/1983,21.201,0.000
04/26/1983,21.201,0.000
04/27/1983,21.201,0.000
04/28/1983,21.313,0.000
04/29/1983,21.336,0.000
04/30/1983,21.522,0.000
05/01/1983,21.522,0.000
05/02/1983,22.146,0.000
05/03/1983,22.177,0.000
05/04/1983,22.177,0.000
05/05/1983,22.178,0.000
05/06/1983,22.290,0.000
05/07/1983,22.304,0.000
05/08/1983,22.630,0.000
05/09/1983,22.630,0.000
05/10/1983,22.630,0.000
05/11/1983,22.630,0.000
05/12/1983,22.631,0.000
05/13/1983,22.641,0.000
05/14/1983,23.130,0.000
05/15/1983,23.263,0.000
05/16/1983,23.263,0.000
05/17/1983,23.316,0.000
05/18/1983,23.392,0.000
05/19/1983,23.651,0.000
05/20/1983,23.678,0.000
05/21/1983,23.763,0.000
05/22/1983,25.006,0.000
05/23/1983,25.297,0.000
05/24/1983,25.298,0.000
05/25/1983,25.426,0.000
05/26/1983,25.426,0.000
05/27/1983,25.427,0.000
05/28/1983,25.658,0.000
05/29/1983,26.081,0.000
05/30/1983,26.236,0.000
05/31/1983,26.359,0.000
06/01/1983,26.392,0.000
06/02/1983,26.392,0.000
06/03/1983,26.432,0.000
06/04/1983,26.462,0.000
06/05/1983,26.462,0.000
06/06/1983,26.662,0.000
06/07/1983,26.662,0.000
06/08/1983,26.662,0.000
06/09/1983,26.663,0.000
06/10/1983,26.844,0.000
06/11/1983,26.845,0.000
06/12/1983,26.845,0.000
06/13/1983,26.845,0.000
06/14/1983,26.845,0.000
06/15/1983,27.597,0.000
06/16/1983,27.614,0.000
06/17/1983,27.614,0.000
06/18/1983,27.614,0.000
06/19/1983,27.625,0.000
06/20/1983,27.633,0.000
06/21/1983,27.633,0.000
06/22/1983,27.633,0.000
06/23/1983,27.633,0.000
06/24/1983,27.633,0.000
06/25/1983,27.633,0.000
06/26/1983,27.633,0.000
06/27/1983,27.656,0.000
06/28/1983,28.391,0.000
06/29/1983,28.606,0.000
06/30/1983,29.032,0.000
07/01/1983,29.605,0.000
07/02/1983,31.185,0.000
07/03/1983,31.204,0.000
07/04/1983,31.919,0.000
07/05/1983,31.919,0.000
07/06/1983,31.919,0.000
07/07/1983,31.919,0.000
07/08/1983,31.919,0.000
07/09/1983,31.919,0.000
07/10/1983,31.919,0.000
07/11/1983,31.919,0.000
07/12/1983,31.919,0.000
07/13/1983,31.919,0.000
07/14/1983,31.919,0.000
07/15/1983,31.919,0.000
07/16/1983,31.919,0.000
07/17/1983,31.919,0.000
07/18/1983,32.002,0.000
07/19/1983,32.238,0.000
07/20/1983,32.584,0.000
07/21/1983,32.637,0.000
07/22/1983,32.645,0.000
07/23/1983,33.100,0.000
07/24/1983,33.125,0.000
07/25/1983,33.151,0.000
07/26/1983,33.151,0.000
07/27/1983,33.151,0.000
07/28/1983,33.152,0.000
07/29/1983,33.162,0.000
07/30/1983,33.204,0.000
07/31/1983,33.218,0.000
08/01/1983,33.219,0.000
08/02/1983,33.219,0.000
08/03/1983,33.219,0.000
08/04/1983,33.423,0.000
08/05/1983,33.423,0.000
08/06/1983,33.423,0.000
08/07/1983,33.423,0.000
08/08/1983,33.423,0.000
08/09/1983,33.423,0.000
08/10/1983,33.425,0.000
08/11/1983,33.680,0.000
08/12/1983,33.680,0.000
08/13/1983,33.680,0.000
08/14/1983,33.680,0.000
08/15/1983,33.680,0.000
08/16/1983,33.681,0.000
08/17/1983,34.386,0.000
08/18/1983,34.387,0.000
08/19/1983,34.387,0.000
08/20/1983,34.387,0.000
08/21/1983,34.390,0.000
08/22/1983,34.531,0.000
08/23/1983,34.531,0.000
08/24/1983,34.531,0.000
08/25/1983,34.582,0.000
08/26/1983,35.198,0.000
08/27/1983,35.689,0.000
08/28/1983,35.826,0.000
08/29/1983,35.826,0.000
08/30/1983,35.833,0.000
08/31/1983,35.911,0.000
09/01/1983,35.911,0.000
09/02/1983,35.911,0.000
09/03/1983,35.911,0.000
09/04/1983,35.911,0.000
09/05/1983,35.978,0.000
09/06/1983,36.580,0.000
09/07/1983,36.646,0.000
09/08/1983,36.646,0.000
09/09/1983,36.646,0.000
09/10/1983,36.667,0.000
09/11/1983,36.972,0.000
09/12/1983,36.985,0.000
09/13/1983,36.985,0.000
09/14/1983,36.986,0.000
09/15/1983,37.014,0.000
09/16/1983,37.544,0.000
09/17/1983,37.623,0.000
09/18/1983,38.374,0.000
09/19/1983,38.541,0.000
09/20/1983,38.781,0.000
09/21/1983,39.398,0.000
09/22/1983,39.401,0.000
09/23/1983,39.403,0.000
09/24/1983,39.403,0.000
09/25/1983,39.442,0.000
09/26/1983,39.564,0.000
09/27/1983,39.564,0.000
09/28/1983,39.564,0.000
09/29/1983,39.564,0.000
09/30/1983,39.564,0.000
10/01/1983,0.000,0.000
10/02/1983,0.000,0.000
10/03/1983,0.032,0.000
10/04/1983,0.328,0.000
10/05/1983,0.328,0.000
10/06/1983,0.328,0.000
10/07/1983,0.338,0.000
10/08/1983,0.458,0.000
10/09/1983,0.458,0.000
10/10/1983,0.458,0.000
10/11/1983,0.499,0.000
10/12/1983,1.139,0.000
10/13/1983,1.302,0.000
10/14/1983,1.302,0.000
10/15/1983,1.302,0.000
10/16/1983,1.302,0.000
10/17/1983,1.302,0.000
10/18/1983,1.302,0.000
10/19/1983,1.307,0.000
10/20/1983,1.373,0.000
10/21/1983,1.641,0.000
10/22/1983,2.294,0.000
10/23/1983,2.713,0.000
10/24/1983,2.713,0.000
10/25/1983,2.715,0.000
10/26/1983,2.715,0.000
10/27/1983,2.715,0.000
10/28/1983,2.715,0.000
10/29/1983,2.715,0.000
10/30/1983,2.715,0.000
10/31/1983,2.750,0.000
11/01/1983,3.130,0.000
11/02/1983,3.422,0.000
11/03/1983,3.436,0.000
11/04/1983,3.436,0.000
11/05/1983,3.436,0.000
11/06/1983,3.436,0.000
11/07/1983,3.445,0.000
11/08/1983,3.445,0.000
11/09/1983,3.445,0.000
11/10/1983,3.515,0.000
11/11/1983,3.728,0.000
11/12/1983,3.728,0.000
11/13/1983,3.728,0.000
11/14/1983,3.738,0.000
11/15/1983,3.791,0.000
11/16/1983,3.929,0.000
11/17/1983,3.933,0.000
11/18/1983,3.953,0.000
11/19/1983,4.430,0.000
11/20/1983,4.985,0.000
11/21/1983,5.033,0.000
11/22/1983,5.072,0.000
11/23/1983,5.976,0.000
11/24/1983,6.088,0.000
11/25/1983,6.088,0.000
11/26/1983,6.114,0.010
11/27/1983,6.361,0.000
11/28/1983,7.158,0.019
11/29/1983,7.245,0.063
11/30/1983,7.246,0.064
12/01/1983,7.246,0.064
12/02/1983,7.246,0.064
12/03/1983,7.246,0.064
12/04/1983,7.313,0.107
12/05/1983,7.351,0.108
12/06/1983,7.443,0.246
12/07/1983,7.479,0.279
12/08/1983,7.479,0.280
12/09/1983,7.655,0.518
12/10/1983,7.655,0.518
12/11/1983,7.855,0.544
12/12/1983,8.492,0.439
12/13/1983,8.492,0.439
12/14/1983,8.633,0.511
12/15/1983,9.089,0.958
12/16/1983,9.162,0.998
12/17/1983,9.162,0.998
12/18/1983,9.162,0.999
12/19/1983,9.162,0.999
12/20/1983,9.163,1.001
12/21/1983,9.268,1.219
12/22/1983,9.399,1.417
12/23/1983,9.399,1.417
12/24/1983,9.399,1.417
12/25/1983,9.399,1.417
12/26/1983,9.399,1.417
12/27/1983,9.399,1.417
12/28/1983,9.515,1.662
12/29/1983,9.565,1.717
12/30/1983,9.565,1.717
12/31/1983,9.567,1.719
01/01/1984,9.567,1.719
01/02/1984,9.745,2.013
01/03/1984,9.745,2.013
01/04/1984,9.745,2.013
01/05/1984,9.745,2.013
01/06/1984,9.745,2.013
01/07/1984,9.745,2.013
01/08/1984,9.745,2.013
01/09/1984,9.826,2.072
01/10/1984,9.848,2.084
01/11/1984,9.848,2.084
01/12/1984,9.848,2.084
01/13/1984,9.861,2.099
01/14/1984,9.910,2.141
01/15/1984,9.913,2.145
01/16/1984,9.913,2.146
01/17/1984,9.913,2.146
01/18/1984,9.913,2.146
01/19/1984,9.913,2.146
01/20/1984,9.913,2.146
01/21/1984,9.913,2.146
01/22/1984,9.916,2.147
01/23/1984,9.948,2.171
01/24/1984,10.052,2.270
01/25/1984,10.059,2.274
01/26/1984,10.066,2.278
01/27/1984,10.073,2.281
01/28/1984,10.094,2.293
01/29/1984,10.157,2.329
01/30/1984,10.321,2.611
01/31/1984,10.321,2.611
02/01/1984,10.321,2.611
02/02/1984,10.321,2.611
02/03/1984,10.321,2.404
02/04/1984,10.321,2.404
02/05/1984,10.375,2.434
02/06/1984,10.375,2.434
02/07/1984,10.375,2.434
02/08/1984,10.375,2.434
02/09/1984,10.375,2.434
02/10/1984,10.375,2.330
02/11/1984,10.470,1.924
02/12/1984,10.476,1.419
02/13/1984,11.386,1.187
02/14/1984,11.387,1.063
02/15/1984,11.387,0.872
02/16/1984,11.390,0.650
02/17/1984,11.423,0.559
02/18/1984,11.423,0.452
02/19/1984,11.686,0.356
02/20/1984,11.704,0.356
02/21/1984,11.704,0.330
02/22/1984,11.704,0.287
02/23/1984,11.704,0.044
02/24/1984,11.704,0.003
02/25/1984,11.704,0.003
02/26/1984,11.704,0.002
02/27/1984,11.704,0.002
02/28/1984,11.748,0.042
02/29/1984,11.748,0.042
03/01/1984,11.748,0.042
03/02/1984,11.748,0.042
03/03/1984,11.748,0.042
03/04/1984,11.748,0.042
03/05/1984,11.770,0.053
03/06/1984,11.770,0.053
03/07/1984,11.770,0.053
03/08/1984,11.815,0.107
03/09/1984,11.816,0.109
03/10/1984,11.818,0.110
03/11/1984,11.818,0.111
03/12/1984,11.818,0.111
03/13/1984,11.923,0.215
03/14/1984,11.961,0.239
03/15/1984,12.150,0.136
03/16/1984,12.601,0.020
03/17/1984,12.660,0.086
03/18/1984,12.874,0.264
03/19/1984,12.942,0.295
03/20/1984,13.408,0.390
03/21/1984,13.444,0.380
03/22/1984,13.595,0.445
03/23/1984,13.596,0.444
03/24/1984,13.596,0.373
03/25/1984,13.596,0.246
03/26/1984,13.596,0.160
03/27/1984,13.604,0.046
03/28/1984,13.605,0.018
03/29/1984,13.605,0.003
03/30/1984,13.605,0.000
03/31/1984,13.605,0.000
04/01/1984,13.605,0.000
04/02/1984,13.605,0.000
04/03/1984,13.621,0.000
04/04/1984,13.832,0.000
04/05/1984,13.871,0.000
04/06/1984,13.873,0.000
04/07/1984,13.873,0.000
04/08/1984,13.873,0.000
04/09/1984,13.882,0.000
04/10/1984,13.882,0.000
04/11/1984,13.882,0.000
04/12/1984,13.882,0.000
04/13/1984,14.482,0.000
04/14/1984,14.580,0.000
04/15/1984,14.682,0.000
04/16/1984,14.845,0.000
04/17/1984,14.924,0.000
04/18/1984,14.937,0.000
04/19/1984,14.937,0.000
04/20/1984,14.943,0.000
04/21/1984,14.999,0.000
04/22/1984,15.739,0.000
04/23/1984,15.932,0.000
04/24/1984,16.008,0.000
04/25/1984,16.008,0.000
04/26/1984,16.010,0.000
04/27/1984,16.012,0.000
04/28/1984,16.092,0.000
04/29/1984,16.134,0.000
04/30/1984,16.894,0.000
05/01/1984,16.894,0.000
05/02/1984,16.894,0.000
05/03/1984,16.920,0.000
05/04/1984,17.217,0.000
05/05/1984,17.221,0.000
05/06/1984,17.221,0.000
05/07/1984,17.221,0.000
05/08/1984,17.221,0.000
05/09/1984,17.225,0.000
05/10/1984,17.225,0.000
05/11/1984,17.227,0.000
05/12/1984,17.227,0.000
05/13/1984,17.464,0.000
05/14/1984,17.468,0.000
05/15/1984,17.468,0.000
05/16/1984,17.468,0.000
05/17/1984,17.468,0.000
05/18/1984,17.468,0.000
05/19/1984,17.657,0.000
05/20/1984,17.914,0.000
05/21/1984,17.939,0.000
05/22/1984,18.184,0.000
05/23/1984,18.655,0.000
05/24/1984,18.655,0.000
05/25/1984,19.821,0.000
05/26/1984,20.061,0.000
05/27/1984,20.061,0.000
05/28/1984,20.725,0.000
05/29/1984,21.160,0.000
05/30/1984,21.160,0.000
05/31/1984,21.160,0.000
06/01/1984,21.160,0.000
06/02/1984,21.160,0.000
06/03/1984,21.161,0.000
06/04/1984,21.161,0.000
06/05/1984,21.164,0.000
06/06/1984,21.206,0.000
06/07/1984,21.754,0.000
06/08/1984,22.181,0.000
06/09/1984,22.272,0.000
06/10/1984,22.376,0.000
06/11/1984,22.376,0.000
06/12/1984,22.394,0.000
06/13/1984,22.628,0.000
06/14/1984,22.646,0.000
06/15/1984,22.646,0.000
06/16/1984,22.666,0.000
06/17/1984,22.792,0.000
06/18/1984,23.221,0.000
06/19/1984,23.221,0.000
06/20/1984,23.221,0.000
06/21/1984,23.222,0.000
06/22/1984,23.519,0.000
06/23/1984,24.000,0.000
06/24/1984,24.036,0.000
06/25/1984,24.036,0.000
06/26/1984,24.049,0.000
06/27/1984,24.243,0.000
06/28/1984,24.251,0.000
06/29/1984,24.276,0.000
06/30/1984,24.276,0.000
07/01/1984,24.276,0.000
07/02/1984,24.276,0.000
07/03/1984,24.279,0.000
07/04/1984,24.324,0.000
07/05/1984,24.332,0.000
07/06/1984,24.418,0.000
07/07/1984,24.418,0.000
07/08/1984,24.418,0.000